User: anonymous   Login
Location: Bangkok
(13.7500°N, 100.5170°E)
Time: 20:09:21
(UTC+07:00)
Language:

Cosmos 1898 Rocket - Orbit

View from above orbital plane
View from above orbital plane
View from above satellite
View from above satellite

Ground track
Ground track

The orbit data is extracted from the following two-line orbital elements,

1 18586U 87098B   14304.82935803  .00000249  00000-0  93687-4 0  1635
2 18586 074.0076 261.5971 0021041 188.7333 193.4851 14.36483248409597
Epoch (UTC): 31 October 2014 19:54:16
Eccentricity: 0.0021041
inclination: 74.0076°
perigee height: 755 km
apogee height: 785 km
right ascension of ascending node: 261.5971°
argument of perigee: 188.7333°
revolutions per day: 14.36483248
mean anomaly at epoch: 193.4851°
orbit number at epoch: 40959

The dashed part of the orbit path shows where the satellite is in the earth's shadow,  

DLR